Вернуться в каталог

STARLINK-35859

АктивенСвязьVLEO
NORAD 67185·PAYLOAD·🇺🇸 United States

Запущен Dec 17, 2025 с Cape Canaveral Space Force Station

Loading…

Ближайшие Пролёты (ближайшие 24 часа)

TLE

СвежийSource: CelesTrak SupGP

Эпоха: Sep 15, 2026, 02:45 UTC

1 67185C 25303Y   26258.11506944  .00037423  00000+0  13551-2 0  2586
2 67185  43.0014 320.5986 0001455 258.2378 302.3129 15.27568634    12

Отслеживайте STARLINK-35859 в реальном времени с AllMySat

Download on the App Store